Location: Bagnara
(41.0500°N, 14.7833°E)
Time: 15:23:08
(UTC+00:00)

Cosmos 1092 Rocket - Pass Details

Date: 20 June 2021
Orbit: 955 x 994 km, 82.9° (Epoch: 30 July)

Event Time Altitude Azimuth Distance (km) Brightness Sun altitude
Exits shadow 01:11:06 32° 218° (SW) 1,580 4.5 -18.9°
Maximum altitude 01:13:50 56° 281° (W) 1,125 4.2 -18.7°
Drops below altitude 10° 01:19:52 10° 359° (N) 2,695 7.1 -18.1°
Sets 01:22:27 0° 4° (N) 3,648 8.1 -17.8°
